Location: Unspecified
(0.0000°N, 0.0000°E)
Time: 17:24:08
(UTC+00:00)

deb r/b Ablestar - Pass Details

Date: 13 March 2026
Orbit: 726 x 907 km, 66.9° (Epoch: 18 April)

Event Time Altitude Azimuth Distance (km) Brightness Sun altitude
Rises 20:36:43 0° 214° (SW) 3,406 ? -36.8°
Reaches altitude 10° 20:39:16 10° 221° (SW) 2,495 ? -37.4°
Enters shadow 20:42:37 30° 247° (WSW) 1,504 ? -38.3°
